{"data":{"norad_id":57133,"epoch":"2026-09-20T09:45:23.676192Z","epoch_age_seconds":128993,"freshness":"FRESH","line1":"1 57133U 23090AJ  26263.40652403  .00000521  00000+0  28455-4 0  9991","line2":"2 57133  43.0038 243.6147 0001658 281.2974  78.7691 15.27577176180138","mean_motion":15.27577176,"eccentricity":0.0001658,"inclination_deg":43.0038,"raan_deg":243.6147,"arg_perigee_deg":281.2974,"mean_anomaly_deg":78.7691,"bstar":2.8455e-5,"rev_number":18013,"period_min":94.26692298262,"perigee_km":481.91996606787,"apogee_km":484.19513818135,"semimajor_km":6861.1945521246,"source":"CELESTRAK","updated_at":"2026-09-21T09:00:33.564643Z"}}